Regional Weather Roundup
Issued by NWS

Home | Current Version | Previous Version | Text Only | Print | Product List | Glossary On
Versions: 1 2 3 4 5 6 7 8 9 10 11 12 13 14 15 16 17 18 19 20 21 22 23 24 25 26 27 28 29 30 31 32 33 34 35 36 37 38 39 40 41 42 43 44 45 46 47 48 49 50
000
ASUS46 KSEW 072310
RWRWA

WASHINGTON REGIONAL WEATHER ROUNDUP
NATIONAL WEATHER SERVICE SEATTLE WA
300 PM PST WED DEC 07 2016

NOTE:"FAIR" INDICATES FEW OR NO CLOUDS BELOW 12,000 FEET WITH NO
SIGNIFICANT WEATHER AND/OR OBSTRUCTIONS TO VISIBILITY.

WAZ507-509-555>559-080000-
SEATTLE, TACOMA, EVERETT, AND VICINITY

CITY           SKY/WX    TMP DP  RH WIND       PRES   REMARKS
EVERETT        CLEAR     34  23  64 NW6       30.39F
BOEING FIELD   PTCLDY    39  21  48 E9        30.39F
RENTON         CLEAR     39  19  44 NE9       30.39S
SEATAC AIRPORT PTCLDY    38  19  46 E14       30.37F
JBLM-MCCHORD   CLEAR     38  22  53 NE5       30.35F
PUYALLUP       FAIR      37  23  56 VRB5      30.34F
BREMERTON      CLEAR     34  21  60 N12       30.40S WCI  25
JBLM-FT LEWIS  CLEAR     38  24  58 N10       30.34F
TACOMA NARROWS CLEAR     37  24  59 N12       30.36F
$$

WAZ001-503-506-510-514-515-080000-
NORTH INTERIOR

CITY           SKY/WX    TMP DP  RH WIND       PRES   REMARKS
BELLINGHAM     CLEAR     31   7  36 N16G23    30.45S WCI  20
FRIDAY HARBOR  CLEAR     35  16  45 N8        30.44F
EASTSOUND      FLURRIES  32  12  43 NE7       30.45S
PORT ANGELES   PTCLDY    29  22  75 SE8       30.41F
EDIZ HOOK      FAIR      34  24  66 E10G16    30.43S WCI  26
PORT TOWNSEND  FAIR      34  21  60 NE6       30.43S
NAS WHIDBEY    PTCLDY    36  15  42 NE9       30.47F
ARLINGTON      CLEAR     36  18  48 N6        30.44S
BURLINGTON     NOT AVBL
$$

WAZ020-022-039-040-504-511-512-080000-
SOUTHWEST INTERIOR

CITY           SKY/WX    TMP DP  RH WIND       PRES   REMARKS
SHELTON        CLEAR     37  22  54 NE12G18   30.34F
OLYMPIA        CLEAR     37  23  56 NE8       30.35S
CHEHALIS       FAIR      37  28  70 NE9       30.34S
KELSO          SUNNY     41  23  48 SE6       30.32F
VANCOUVER      MOSUNNY   38  19  46 E12G21    30.30F
SCAPPOOSE, OR  MOSUNNY   38  23  55 NE10      30.30F
PORTLAND, OR   PTSUNNY   37  20  50 E23       30.29S
$$

WAZ021-516-517-080000-
WASHINGTON COAST

CITY           SKY/WX    TMP DP  RH WIND       PRES   REMARKS
FORKS          CLEAR     33  19  56 NE9       30.33S
HOQUIAM        SUNNY     38  24  57 NE16      30.31F
ASTORIA, OR    MOSUNNY   40  27  59 E21G28    30.25F
$$

WAZ019-023-024-040-567>569-080000-
CASCADE MOUNTAINS AND COLUMBIA GORGE

CITY           SKY/WX    TMP DP  RH WIND       PRES   REMARKS
STAMPEDE PASS  PTCLDY    13  11  92 VRB7      30.22S
TROUTDALE, OR  MOSUNNY   37  21  52 E16       30.31S
THE DALLES, OR FAIR      34  22  61 SE9       30.46S
$$

WAZ026-027-041>044-520-521-080000-
EAST SLOPES

CITY           SKY/WX    TMP DP  RH WIND       PRES   REMARKS
OMAK           CLEAR     23   4  44 N15G22    30.52R WCI  10
WENATCHEE      CLOUDY    24  12  60 W5        30.49S
ELLENSBURG     CLOUDY    28  10  46 SE10      30.41S WCI  19
YAKIMA         CLOUDY    32  14  47 CALM      30.45F
$$

WAZ028-034-035-080000-
COLUMBIA BASIN

CITY           SKY/WX    TMP DP  RH WIND       PRES   REMARKS
EPHRATA        CLOUDY    22   8  55 N8        30.48R
MOSES LAKE     CLEAR     27  13  55 N8        30.49R
PASCO          CLEAR     30  20  66 N10       30.52S WCI  21
HERMISTON, OR  CLEAR     31  19  61 NE10      30.46S WCI  22
$$

WAZ036>038-080000-
NORTHEAST WASHINGTON

CITY           SKY/WX    TMP DP  RH WIND       PRES   REMARKS
SPOKANE GEIGER PTCLDY    27  13  55 NE9       30.40S
SPOKANE FELTS  PTCLDY    29  14  53 E7        30.43S
FAIRCHILD AFB  PTCLDY    25  14  63 E7        30.38S
COEURDALENE,ID MOCLDY    26  13  57 N14       30.42R WCI  14
DEER PARK      PTCLDY    26  11  52 NE9       30.43R
$$

WAZ029>033-080000-
SOUTHEAST WASHINGTON

CITY           SKY/WX    TMP DP  RH WIND       PRES   REMARKS
PULLMAN        CLEAR     24  16  71 E6        30.39S
LEWISTON, ID   CLEAR     28  19  69 SE5       30.44S
WALLA WALLA    CLEAR     24  17  74 CALM      30.44S
PENDLETON, OR  PTCLDY    22  17  81 E5        30.41S
$$



USA.gov is the U.S. government's official web portal to all federal, state and local government web resources and services.